Weather History for Iron Mountain, MI

Change the Weather History Date:

Thursday, November 7, 2013

  Actual Average Record
Temperature  
Mean Temperature 32 °F -  
Max Temperature 35 °F 43 °F 68 °F (1949)
Min Temperature 30 °F 24 °F 0 °F (1991)
Degree Days  
Heating Degree Days 32    
Moisture  
Dew Point 24 °F    
Average Humidity 70    
Maximum Humidity 76    
Minimum Humidity 64    
Precipitation  
Precipitation 0.00 in - - ()
Sea Level Pressure  
Sea Level Pressure 30.11 in    
Wind  
Wind Speed 10 mph (WNW)    
Max Wind Speed 14 mph    
Max Gust Speed 20 mph    
Visibility 10 miles    
Events Snow    
Averages and records for this station are not official NWS values.
T = Trace of Precipitation, MM = Missing Value Source: NWS Daily Summary

Daily Weather History Graph

Daily Weather History Graph

Search for Another Location

Airport:

Trip Planner

Search our weather history database for the weather conditions in past years. The results will help you decide how hot, cold, wet, or windy it might be!

Date:

Astronomy

Nov. 07, 2013 Rise Set
Actual Time 6:41 AM CST 4:30 PM CST
Civil Twilight 6:09 AM CST 5:01 PM CST
Nautical Twilight 5:34 AM CST 5:37 PM CST
Astronomical Twilight 4:59 AM CST 6:12 PM CST
Moon 10:52 AM CST (11/7) 8:39 PM CST (11/7)
Length of Visible Light 10h 52m
Length of Day
9h 48m
Waxing Crescent, 23% of the Moon is Illuminated
Nov 7
Waxing Crescent
Nov 9
First Quarter
Nov 17
Full
Nov 25
Last Quarter
Dec 2
New

Hourly Weather History & Observations

Time (CST) Temp. Windchill Dew Point Humidity Pressure Visibility Wind Dir Wind Speed Gust Speed Precip Events Conditions
12:16 AM 32.0 °F 22.1 °F 21.2 °F 64% 30.03 in 10.0 mi WNW 13.8 mph 17.3 mph N/A   Overcast
12:54 AM 32.0 °F 23.6 °F 21.0 °F 64% 30.07 in 10.0 mi WNW 10.4 mph - N/A   Overcast
1:54 AM 32.0 °F 24.2 °F 21.9 °F 66% 30.07 in 10.0 mi West 9.2 mph - N/A   Overcast
2:54 AM 32.0 °F 24.8 °F 23.0 °F 69% 30.08 in 10.0 mi WNW 8.1 mph - N/A   Overcast
3:54 AM 30.9 °F 24.3 °F 23.0 °F 72% 30.08 in 10.0 mi West 6.9 mph - N/A   Overcast
4:54 AM 30.9 °F 24.3 °F 23.0 °F 72% 30.09 in 10.0 mi West 6.9 mph - N/A   Overcast
5:54 AM 30.9 °F 23.5 °F 23.0 °F 72% 30.09 in 10.0 mi West 8.1 mph - N/A   Overcast
6:54 AM 30.9 °F 23.5 °F 23.0 °F 72% 30.09 in 10.0 mi West 8.1 mph - N/A   Overcast
7:54 AM 30.9 °F 22.2 °F 24.1 °F 76% 30.10 in 10.0 mi West 10.4 mph - N/A   Overcast
8:54 AM 32.0 °F 24.2 °F 24.1 °F 73% 30.10 in 10.0 mi West 9.2 mph - N/A   Overcast
9:54 AM 33.1 °F 24.9 °F 25.0 °F 72% 30.11 in 10.0 mi WNW 10.4 mph - N/A   Overcast
10:54 AM 35.1 °F 28.6 °F 25.0 °F 67% 30.12 in 10.0 mi WNW 8.1 mph - N/A   Overcast
11:54 AM 34.0 °F 26.0 °F 25.0 °F 70% 30.11 in 9.0 mi WNW 10.4 mph - 0.00 in Snow Light Snow
12:16 PM 35.6 °F 29.2 °F 26.6 °F 70% 30.07 in 9.0 mi WNW 8.1 mph - N/A   Overcast
12:54 PM 35.1 °F 27.9 °F 25.0 °F 67% 30.11 in 10.0 mi WNW 9.2 mph - 0.00 in   Overcast
1:54 PM 35.1 °F 27.9 °F 25.0 °F 67% 30.10 in 10.0 mi West 9.2 mph - N/A   Overcast
2:54 PM 34.0 °F 25.5 °F 25.0 °F 70% 30.11 in 10.0 mi West 11.5 mph - N/A   Overcast
3:54 PM 33.1 °F 24.4 °F 24.1 °F 70% 30.12 in 10.0 mi West 11.5 mph 19.6 mph 0.00 in   Overcast
4:54 PM 33.1 °F 26.9 °F 23.0 °F 66% 30.12 in 10.0 mi West 6.9 mph - N/A   Overcast
5:54 PM 32.0 °F 25.6 °F 24.1 °F 73% 30.14 in 10.0 mi WNW 6.9 mph - N/A   Overcast
6:54 PM 33.1 °F 25.5 °F 23.0 °F 66% 30.14 in 10.0 mi WNW 9.2 mph - N/A   Overcast
7:54 PM 32.0 °F 24.8 °F 23.0 °F 69% 30.14 in 10.0 mi WNW 8.1 mph - N/A   Overcast
8:54 PM 32.0 °F 24.2 °F 24.1 °F 73% 30.14 in 10.0 mi WNW 9.2 mph - 0.00 in   Overcast
9:54 PM 32.0 °F 24.8 °F 24.1 °F 73% 30.15 in 10.0 mi WNW 8.1 mph - N/A   Overcast
10:54 PM 32.0 °F 25.6 °F 24.1 °F 73% 30.15 in 10.0 mi WNW 6.9 mph - N/A   Overcast
11:54 PM 32.0 °F 25.6 °F 24.1 °F 73% 30.16 in 10.0 mi WNW 6.9 mph - N/A   Overcast